[[{"header":{"parameterUnit":"m.s-1","parameterCategory":1,"la1":30.2991,"la2":30.254,"lo1":-89.0895,"lo2":-89.0444,"dy":0.0017,"dx":0.0017,"nx":28,"ny":28,"refTime":"2025-08-25T21:00:00:Z","depth":0,"parameterNumber":2,"parameterNumberName":"U-component_of_WINDS"},"data":[0,0,0,0,0,0,0,0,0,0,0,0,0,0,0,0,0,0,0,0,0,0,0,0,0,0,0,0,0,0,0,0,0,0,0,0,0,0,0,0,0,0,0,0,0,0,0,0,0,0,0,0,0,0,0,0,0,0,-2.7233,-2.7234,0,-2.7353,-2.7354,-2.7356,-2.7345,-2.7344,-2.7342,-2.734,-2.7462,-2.7467,-2.7472,0,0,0,0,0,0,0,0,0,0,0,0,0,-2.6994,-2.6998,-2.7233,-2.7235,-2.7236,-2.7353,-2.7354,-2.7356,-2.7346,-2.7344,-2.7341,-2.7339,-2.7461,-2.7466,-2.7472,0,0,0,0,0,0,0,0,0,0,0,0,0,-2.7104,-2.7,-2.7233,-2.7245,-2.7247,-2.7352,-2.7354,-2.7356,-2.7346,-2.7344,-2.7341,-2.7338,-2.7459,-2.7466,-2.7473,-2.7574,0,0,-2.7496,-2.7499,0,0,0,0,0,0,0,0,-2.7098,-2.7113,-2.7242,-2.7244,-2.7247,-2.7331,-2.7315,-2.7429,-2.7347,-2.7309,-2.734,-2.7337,-2.7421,-2.7431,-2.746,-2.7579,-2.7585,-2.7497,-2.7501,-2.7504,-2.7506,0,0,0,0,0,0,0,-2.709,-2.7108,-2.728,-2.7244,-2.7247,-2.7244,-2.7257,-2.7336,-2.7379,-2.7312,-2.7311,-2.7326,-2.7422,-2.7453,-2.7462,-2.7586,-2.7496,-2.7503,-2.7508,-2.751,-2.7792,-2.7795,0,0,0,0,0,0,-2.708,-2.7101,-2.7277,-2.7284,-2.7164,-2.7251,-2.7265,-2.7307,-2.7378,-2.7386,-2.7328,-2.7325,-2.7441,-2.7454,-2.7467,-2.7587,-2.7504,-2.7511,-2.7515,-2.7789,-2.7793,-2.7796,0,0,0,0,0,0,-2.7075,-2.7096,-2.7272,-2.7193,-2.7215,-2.7258,-2.7305,-2.7311,-2.7342,-2.739,-2.7397,-2.7352,-2.744,-2.7456,-2.7547,-2.7591,-2.7514,-2.7521,-2.7785,-2.779,-2.7794,-2.7829,0,0,0,0,0,0,-2.7068,-2.7094,-2.7133,-2.7194,-2.7219,-2.735,-2.7308,-2.7315,-2.7355,-2.7352,-2.7414,-2.7422,-2.7439,-2.7536,-2.7554,-2.76,-2.7527,-2.7782,-2.7788,-2.7793,-2.7824,-2.7834,-2.7843,0,0,0,0,0,-2.706,-2.7138,-2.7135,-2.7156,-2.7269,-2.7353,-2.7367,-2.7385,-2.7358,-2.7397,-2.7428,-2.742,-2.7584,-2.7545,-2.7566,-2.7614,-2.7779,-2.7786,-2.7792,-2.782,-2.7832,-2.7843,0,0,0,0,0,0,-2.7082,-2.7147,-2.7144,-2.7245,-2.7293,-2.7351,-2.7401,-2.7398,-2.7456,-2.745,-2.747,-2.7484,-2.7575,-2.7604,-2.756,-2.7714,-2.7678,-2.7689,-2.7691,-2.7704,-2.7713,-2.7703,-2.7533,0,0,0,0,0,-2.7099,-2.7162,-2.7215,-2.7299,-2.7323,-2.7358,-2.7395,-2.7405,-2.7456,-2.7476,-2.7514,-2.7564,-2.7626,-2.7667,-2.7727,-2.7829,-2.7841,-2.7873,-2.7882,-2.789,-2.7898,-2.7952,-2.7966,-2.7818,-2.7818,-2.7818,0,0,-2.7134,-2.7177,-2.7216,-2.7304,-2.7343,-2.7407,-2.7375,-2.7445,-2.7492,-2.7487,-2.7574,-2.7603,-2.766,-2.7756,-2.78,-2.7783,-2.7942,-2.7898,-2.7904,-2.7909,-2.7961,-2.7975,-2.7987,-2.7823,-2.7822,-2.7821,0,0,-2.723,-2.727,-2.7343,-2.7382,-2.7441,-2.7464,-2.7481,-2.7539,-2.7558,-2.7646,-2.7643,-2.77,-2.7807,-2.7847,-2.7882,-2.7992,-2.7985,-2.8011,-2.8059,-2.8112,-2.8123,-2.8133,-2.8171,-2.8184,-2.802,-2.802,-2.802,0,-2.7265,-2.7362,-2.7381,-2.745,-2.7488,-2.7487,-2.756,-2.7598,-2.7674,-2.77,-2.768,-2.7814,-2.7852,-2.7956,-2.7983,-2.8012,-2.8031,-2.8003,-2.812,-2.8131,-2.8141,-2.8176,-2.819,-2.8023,-2.8022,-2.8022,-2.8022,0,-2.7402,-2.7469,-2.7521,-2.7593,-2.7638,-2.7709,-2.7738,-2.778,-2.7786,-2.781,-2.7899,-2.7945,-2.8013,-2.8039,-2.8046,-2.8144,-2.8131,-2.8116,-2.8079,-2.8157,-2.819,-2.8204,-2.8026,-2.8025,-2.8025,-2.8024,0,0,-2.7515,-2.7596,-2.7614,-2.7646,-2.7711,-2.7763,-2.7834,-2.7901,-2.7936,-2.7989,-2.8047,-2.8138,-2.8124,-2.8163,-2.8174,-2.822,-2.8301,-2.8199,-2.82,-2.8214,-2.841,-2.8419,-2.8435,-2.8299,-2.8301,-2.8304,-2.8404,0,-2.7615,-2.774,-2.7758,-2.7868,-2.7929,-2.7928,-2.799,-2.8036,-2.806,-2.8115,-2.8142,-2.8205,-2.8183,-2.8206,-2.8252,-2.8282,-2.8341,-2.8275,-2.8352,-2.8354,-2.8335,-2.8453,-2.8463,-2.8556,-2.8418,-2.842,-2.8421,0,-2.7749,-2.7804,-2.792,-2.7974,-2.8001,-2.8056,-2.8117,-2.8171,-2.8222,-2.8237,-2.828,-2.8285,-2.8357,-2.8319,-2.8418,-2.8373,-2.8406,-2.8425,-2.8429,-2.8435,-2.8391,-2.8459,-2.8586,-2.8599,-2.8443,-2.8441,-2.844,0,-2.7816,-2.7919,-2.8001,-2.8029,-2.8096,-2.8134,-2.8164,-2.8213,-2.8251,-2.8306,-2.8331,-2.8393,-2.8426,-2.8474,-2.8496,-2.8466,-2.8593,-2.8557,-2.8605,-2.8604,-2.863,-2.8627,-2.8761,-2.8655,-2.8655,-2.8655,-2.8654,0,-2.7925,-2.7995,-2.8032,-2.8082,-2.816,-2.8181,-2.8258,-2.8286,-2.833,-2.8385,-2.8389,-2.844,-2.8467,-2.8522,-2.854,-2.8617,-2.8633,-2.8646,-2.8649,-2.8644,-2.8642,-2.8664,-2.8657,-2.8658,-2.8658,-2.8657,-2.8656,0,-2.8012,-2.804,-2.8129,-2.8185,-2.82,-2.8255,-2.8303,-2.8351,-2.8375,-2.8445,-2.8462,-2.85,-2.8565,-2.8592,-2.8672,-2.8684,-2.8773,-2.8772,-2.8755,-2.8755,-2.8801,-2.8795,-2.8951,-2.8972,-2.8855,-2.8856,-2.8857,0,-2.8078,-2.8132,-2.8193,-2.823,-2.8261,-2.8321,-2.836,-2.8382,-2.8422,-2.8485,-2.8525,-2.859,-2.8643,-2.8747,-2.8782,-2.8843,-2.8842,-2.8893,-2.8851,-2.8844,-2.884,-2.8835,-2.884,-2.89,-2.8901,-2.8902,-2.8903,0,-2.8192,-2.8203,-2.8259,-2.832,-2.8366,-2.8415,-2.8463,-2.8493,-2.8523,-2.8568,-2.8634,-2.8676,-2.8757,-2.8821,-2.8884,-2.8914,-2.8913,-2.8916,-2.893,-2.8924,-2.891,-2.8915,-2.8773,-2.8911,-2.8911,-2.891,-2.8909,-2.8909,-2.8269,-2.8316,-2.8366,-2.8428,-2.8466,-2.851,-2.8558,-2.8588,-2.8644,-2.8711,-2.8721,-2.8792,-2.8841,-2.8925,-2.8958,-2.9013,-2.9,-2.9021,-2.9025,-2.903,-2.9031,-2.8903,-2.9025,-2.9025,-2.9024,-2.9024,-2.9024,0,-2.838,-2.8412,-2.8469,-2.8536,-2.8584,-2.858,-2.8632,-2.8673,-2.8735,-2.8781,-2.8833,-2.8908,-2.897,-2.901,-2.9072,-2.9108,-2.9109,-2.9123,-2.912,-2.9126,-2.9041,-2.9021,-2.9121,-2.9121,-2.9121,-2.9121,-2.9121,-2.9121,-2.8444,-2.8522,-2.8539,-2.8636,-2.8668,-2.8736,-2.8766,-2.8807,-2.8844,-2.8928,-2.8979,-2.9004,-2.9047,-2.9113,-2.9169,-2.9179,-2.92,-2.9215,-2.9224,-2.9143,-2.9132,-2.9123,-2.9104,-2.922,-2.9221,-2.9304,-2.9305,-2.9306]},{"header":{"parameterUnit":"m.s-1","parameterCategory":1,"la1":30.2991,"la2":30.254,"lo1":-89.0895,"lo2":-89.0444,"dy":0.0017,"dx":0.0017,"nx":28,"ny":28,"refTime":"2025-08-25T21:00:00:Z","depth":0,"parameterNumber":3,"parameterNumberName":"V-component_of_WINDS"},"data":[0,0,0,0,0,0,0,0,0,0,0,0,0,0,0,0,0,0,0,0,0,0,0,0,0,0,0,0,0,0,0,0,0,0,0,0,0,0,0,0,0,0,0,0,0,0,0,0,0,0,0,0,0,0,0,0,0,0,-1.2399,-1.2401,0,-1.2551,-1.2552,-1.2554,-1.2634,-1.2635,-1.2635,-1.2635,-1.2788,-1.2792,-1.2796,0,0,0,0,0,0,0,0,0,0,0,0,0,-1.2176,-1.218,-1.2399,-1.2401,-1.2403,-1.255,-1.2553,-1.2555,-1.2634,-1.2635,-1.2635,-1.2635,-1.2787,-1.2792,-1.2797,0,0,0,0,0,0,0,0,0,0,0,0,0,-1.2295,-1.2181,-1.2399,-1.246,-1.2467,-1.255,-1.2553,-1.2555,-1.2634,-1.2635,-1.2635,-1.2635,-1.2786,-1.2791,-1.2797,-1.2829,0,0,-1.2815,-1.2818,0,0,0,0,0,0,0,0,-1.2288,-1.2303,-1.2449,-1.2456,-1.2464,-1.2574,-1.253,-1.2647,-1.2634,-1.2571,-1.2635,-1.2635,-1.2717,-1.2728,-1.2756,-1.2837,-1.2843,-1.2816,-1.2819,-1.2822,-1.2824,0,0,0,0,0,0,0,-1.2279,-1.2297,-1.2459,-1.2451,-1.2461,-1.248,-1.2497,-1.2553,-1.2641,-1.2576,-1.2583,-1.26,-1.2721,-1.275,-1.276,-1.2845,-1.2816,-1.2821,-1.2825,-1.2827,-1.2959,-1.2959,0,0,0,0,0,0,-1.2262,-1.2289,-1.2454,-1.2463,-1.2375,-1.2484,-1.2503,-1.2538,-1.264,-1.2656,-1.2599,-1.2603,-1.274,-1.2753,-1.2766,-1.281,-1.2822,-1.2828,-1.2831,-1.2959,-1.2959,-1.2959,0,0,0,0,0,0,-1.2256,-1.2276,-1.2448,-1.2378,-1.2402,-1.2487,-1.2527,-1.2541,-1.2571,-1.2658,-1.2673,-1.2613,-1.2741,-1.2758,-1.2813,-1.2817,-1.283,-1.2836,-1.2959,-1.2959,-1.2959,-1.2898,0,0,0,0,0,0,-1.225,-1.2273,-1.2287,-1.2378,-1.2405,-1.2493,-1.2527,-1.2544,-1.2581,-1.2587,-1.2675,-1.269,-1.2742,-1.2804,-1.2819,-1.2825,-1.284,-1.2959,-1.2959,-1.2959,-1.29,-1.2896,-1.2893,0,0,0,0,0,-1.2242,-1.2264,-1.2287,-1.2307,-1.2424,-1.2493,-1.2508,-1.2569,-1.2581,-1.2595,-1.2651,-1.2687,-1.2814,-1.2809,-1.2827,-1.2834,-1.2959,-1.2959,-1.2959,-1.2902,-1.2897,-1.2893,0,0,0,0,0,0,-1.217,-1.2277,-1.2304,-1.2356,-1.2415,-1.2506,-1.2526,-1.2562,-1.2618,-1.2621,-1.2693,-1.2712,-1.276,-1.2803,-1.2796,-1.2871,-1.289,-1.2894,-1.2841,-1.2837,-1.2833,-1.2821,-1.2845,0,0,0,0,0,-1.2161,-1.2208,-1.2299,-1.2336,-1.2364,-1.2439,-1.2472,-1.2513,-1.2577,-1.2602,-1.2662,-1.2721,-1.2775,-1.2808,-1.2862,-1.2907,-1.2927,-1.2921,-1.2917,-1.2914,-1.2916,-1.2942,-1.294,-1.2959,-1.2959,-1.2959,0,0,-1.2141,-1.2205,-1.2231,-1.2323,-1.2374,-1.2421,-1.246,-1.2508,-1.2544,-1.2609,-1.2665,-1.2711,-1.2782,-1.2832,-1.2857,-1.2869,-1.2915,-1.2914,-1.291,-1.2914,-1.2942,-1.294,-1.2938,-1.2959,-1.2959,-1.2959,0,0,-1.213,-1.2183,-1.222,-1.227,-1.2346,-1.2396,-1.2404,-1.2491,-1.2523,-1.2581,-1.2631,-1.2673,-1.2764,-1.2812,-1.2849,-1.2855,-1.289,-1.287,-1.285,-1.2875,-1.2873,-1.2872,-1.2874,-1.2874,-1.2872,-1.2872,-1.2872,0,-1.2096,-1.217,-1.2234,-1.228,-1.2319,-1.238,-1.2418,-1.2463,-1.2552,-1.2576,-1.2589,-1.2703,-1.2756,-1.2818,-1.2819,-1.2847,-1.2858,-1.2861,-1.2869,-1.2868,-1.2868,-1.2871,-1.2871,-1.2869,-1.287,-1.287,-1.287,0,-1.2124,-1.2174,-1.2195,-1.228,-1.2321,-1.2361,-1.2432,-1.2465,-1.2503,-1.2551,-1.2608,-1.2673,-1.2741,-1.2759,-1.2796,-1.2826,-1.2831,-1.2855,-1.2876,-1.2863,-1.2866,-1.2867,-1.2865,-1.2866,-1.2867,-1.2868,0,0,-1.2072,-1.2192,-1.2199,-1.2238,-1.2326,-1.2365,-1.2409,-1.2475,-1.2502,-1.2562,-1.2599,-1.2674,-1.2697,-1.2738,-1.2781,-1.2803,-1.2803,-1.2825,-1.2827,-1.2818,-1.2839,-1.282,-1.282,-1.2827,-1.2827,-1.2827,-1.2833,0,-1.2073,-1.2155,-1.2214,-1.2272,-1.2319,-1.2378,-1.2415,-1.2473,-1.2519,-1.2565,-1.2616,-1.2667,-1.2694,-1.2719,-1.2743,-1.2797,-1.2808,-1.2798,-1.2862,-1.2863,-1.2842,-1.2822,-1.2802,-1.2804,-1.2834,-1.2835,-1.2835,0,-1.2085,-1.2143,-1.2205,-1.2288,-1.231,-1.2343,-1.2408,-1.2452,-1.2517,-1.255,-1.2595,-1.264,-1.2687,-1.2704,-1.277,-1.2761,-1.2791,-1.2821,-1.2823,-1.2831,-1.2848,-1.2829,-1.2806,-1.2806,-1.2838,-1.2838,-1.2837,0,-1.204,-1.2133,-1.2183,-1.2215,-1.2312,-1.2334,-1.2375,-1.2442,-1.2478,-1.2535,-1.2559,-1.262,-1.2654,-1.27,-1.276,-1.2766,-1.2819,-1.2841,-1.2846,-1.2845,-1.2855,-1.2853,-1.2836,-1.2874,-1.2874,-1.2874,-1.2874,0,-1.2035,-1.2071,-1.2164,-1.2194,-1.2236,-1.2304,-1.2343,-1.2389,-1.2448,-1.2488,-1.2542,-1.2578,-1.2655,-1.27,-1.2747,-1.2794,-1.2809,-1.2835,-1.2847,-1.283,-1.2827,-1.285,-1.2851,-1.2874,-1.2874,-1.2874,-1.2874,0,-1.1991,-1.2056,-1.2113,-1.2201,-1.2224,-1.2251,-1.2326,-1.2357,-1.2406,-1.2456,-1.2471,-1.2548,-1.2604,-1.2668,-1.2745,-1.2776,-1.2819,-1.2837,-1.2797,-1.2804,-1.2805,-1.2804,-1.2802,-1.2805,-1.2841,-1.2841,-1.284,0,-1.1983,-1.2013,-1.2103,-1.2134,-1.2174,-1.2223,-1.2261,-1.2328,-1.2364,-1.2441,-1.2463,-1.2523,-1.2575,-1.2661,-1.2723,-1.2782,-1.2801,-1.2797,-1.281,-1.2792,-1.28,-1.2798,-1.2801,-1.2792,-1.2792,-1.2791,-1.2791,0,-1.1962,-1.1992,-1.2044,-1.2107,-1.215,-1.2202,-1.2257,-1.2279,-1.2357,-1.2395,-1.2453,-1.2493,-1.2571,-1.263,-1.2697,-1.2739,-1.2777,-1.2786,-1.279,-1.2773,-1.2748,-1.2761,-1.2786,-1.2785,-1.2786,-1.2786,-1.2787,-1.2787,-1.1936,-1.1964,-1.2033,-1.2088,-1.2137,-1.2186,-1.222,-1.2273,-1.2323,-1.2392,-1.2429,-1.2486,-1.2551,-1.2644,-1.2685,-1.273,-1.2743,-1.2749,-1.2751,-1.2751,-1.2746,-1.2741,-1.2743,-1.2743,-1.2743,-1.2743,-1.2743,0,-1.1917,-1.1964,-1.2014,-1.2089,-1.2133,-1.2166,-1.2228,-1.2262,-1.2312,-1.2369,-1.2419,-1.2485,-1.2542,-1.2609,-1.267,-1.2693,-1.2712,-1.2707,-1.2705,-1.2714,-1.2731,-1.2721,-1.269,-1.269,-1.269,-1.269,-1.269,-1.269,-1.1912,-1.1962,-1.2,-1.2073,-1.212,-1.2177,-1.2209,-1.2255,-1.2301,-1.2373,-1.2421,-1.2464,-1.2525,-1.2591,-1.2644,-1.2663,-1.2682,-1.2671,-1.2694,-1.2709,-1.2713,-1.2718,-1.2708,-1.2675,-1.2675,-1.2674,-1.2674,-1.2674]}]]